When you browse on this site, cookies collect data to enhance your experience and personalize the content and advertising you see.
Visit our Privacy Policy to learn more. By continuing to use the site, you agree to this use of cookies and data.
  • In Deutschland
  • Länderverzeichnis
  • Für 7 Tage
  • Wassertemperatur
  • Satellitenkarten
  • Wetterkarte
  • Widgets
  • user-avatar
    Anmelden

    Stündliche Wetter Hangou

    Heute, 13 Dezember, Donnerstag

    Zeit Temperatur Niederschläge Wind Luftdruck Luftfeuchtigkeit
    00:00 -6°C° 0 mm 3 m/S 773 mmHg 18%
    01:00 -6°C° 0 mm 3 m/S 774 mmHg 18%
    02:00 -6°C° 0 mm 3 m/S 774 mmHg 18%
    03:00 -6°C° 0 mm 3 m/S 774 mmHg 18%
    04:00 -5°C° 0 mm 4 m/S 775 mmHg 19%
    05:00 -5°C° 0 mm 4 m/S 775 mmHg 20%
    06:00 -7°C° 0 mm 4 m/S 776 mmHg 21%
    07:00 -7°C° 0 mm 4 m/S 776 mmHg 22%
    08:00 -6°C° 0 mm 3 m/S 777 mmHg 22%
    09:00 -4°C° 0 mm 4 m/S 777 mmHg 21%
    10:00 -2°C° 0 mm 5 m/S 777 mmHg 19%
    11:00 -1°C° 0 mm 5 m/S 777 mmHg 17%
    12:00 0°C° 0 mm 5 m/S 777 mmHg 16%
    13:00 0°C° 0 mm 4 m/S 777 mmHg 16%
    14:00 +1°C° 0 mm 4 m/S 776 mmHg 15%
    15:00 0°C° 0 mm 3 m/S 777 mmHg 17%
    16:00 -1°C° 0 mm 2 m/S 777 mmHg 19%
    17:00 0°C° 0 mm 1 m/S 777 mmHg 21%
    18:00 -1°C° 0 mm 1 m/S 777 mmHg 21%
    19:00 -2°C° 0 mm 0 m/S 777 mmHg 22%
    20:00 -2°C° 0 mm 0 m/S 778 mmHg 23%
    21:00 -3°C° 0 mm 0 m/S 778 mmHg 23%
    22:00 -3°C° 0 mm 0 m/S 778 mmHg 24%
    23:00 -3°C° 0 mm 0 m/S 778 mmHg 24%

    Morgen, 14 Dezember, Freitag

    Zeit Temperatur Niederschläge Wind Luftdruck Luftfeuchtigkeit
    00:00 -3°C° 0 mm 0 m/S 778 mmHg 24%
    01:00 -4°C° 0 mm 0 m/S 778 mmHg 25%
    02:00 -4°C° 0 mm 0 m/S 779 mmHg 25%
    03:00 -4°C° 0 mm 0 m/S 778 mmHg 26%
    04:00 -4°C° 0 mm 0 m/S 778 mmHg 26%
    05:00 -5°C° 0 mm 0 m/S 778 mmHg 27%
    06:00 -5°C° 0 mm 0 m/S 778 mmHg 27%
    07:00 -5°C° 0 mm 0 m/S 778 mmHg 27%
    08:00 -5°C° 0 mm 0 m/S 778 mmHg 27%
    09:00 -2°C° 0 mm 1 m/S 778 mmHg 24%
    10:00 0°C° 0 mm 1 m/S 778 mmHg 21%
    11:00 +1°C° 0 mm 1 m/S 778 mmHg 18%
    12:00 +1°C° 0 mm 2 m/S 777 mmHg 17%
    13:00 +2°C° 0 mm 2 m/S 777 mmHg 17%
    14:00 +3°C° 0 mm 2 m/S 776 mmHg 16%
    15:00 +2°C° 0 mm 2 m/S 776 mmHg 18%
    16:00 +1°C° 0 mm 2 m/S 775 mmHg 20%
    17:00 +1°C° 0 mm 1 m/S 775 mmHg 22%
    18:00 0°C° 0 mm 1 m/S 775 mmHg 23%
    19:00 0°C° 0 mm 1 m/S 775 mmHg 25%
    20:00 0°C° 0 mm 1 m/S 775 mmHg 27%
    21:00 -1°C° 0 mm 1 m/S 775 mmHg 28%
    22:00 -1°C° 0 mm 1 m/S 775 mmHg 29%
    23:00 -3°C° 0 mm 2 m/S 775 mmHg 31%

    übermorgen, 15 Dezember, Samstag

    Zeit Temperatur Niederschläge Wind Luftdruck Luftfeuchtigkeit
    00:00 -3°C° 0 mm 2 m/S 774 mmHg 31%
    01:00 -3°C° 0 mm 2 m/S 774 mmHg 32%
    02:00 -4°C° 0 mm 2 m/S 774 mmHg 33%
    03:00 -4°C° 0 mm 2 m/S 773 mmHg 34%
    04:00 -4°C° 0 mm 2 m/S 773 mmHg 35%
    05:00 -4°C° 0 mm 2 m/S 772 mmHg 36%
    06:00 -2°C° 0 mm 1 m/S 772 mmHg 37%
    07:00 -2°C° 0 mm 1 m/S 772 mmHg 38%
    08:00 -2°C° 0 mm 1 m/S 772 mmHg 39%
    09:00 -2°C° 0 mm 2 m/S 772 mmHg 39%
    10:00 -1°C° 0 mm 2 m/S 772 mmHg 38%
    11:00 +1°C° 0 mm 2 m/S 772 mmHg 37%
    12:00 +2°C° 0 mm 2 m/S 771 mmHg 36%
    13:00 +2°C° 0 mm 3 m/S 770 mmHg 35%
    14:00 +3°C° 0 mm 3 m/S 769 mmHg 34%
    15:00 +3°C° 0 mm 2 m/S 769 mmHg 36%
    16:00 +2°C° 0 mm 2 m/S 769 mmHg 37%
    17:00 +2°C° 0 mm 1 m/S 768 mmHg 39%
    18:00 +2°C° 0 mm 1 m/S 769 mmHg 39%
    19:00 +1°C° 0 mm 1 m/S 769 mmHg 39%
    20:00 0°C° 0 mm 1 m/S 769 mmHg 39%
    21:00 0°C° 0 mm 1 m/S 769 mmHg 37%
    22:00 0°C° 0 mm 1 m/S 769 mmHg 36%
    23:00 -1°C° 0 mm 1 m/S 768 mmHg 35%

    16 Dezember, Sonntag

    Zeit Temperatur Niederschläge Wind Luftdruck Luftfeuchtigkeit
    00:00 -1°C° 0 mm 1 m/S 768 mmHg 34%
    01:00 -3°C° 0 mm 2 m/S 768 mmHg 33%
    02:00 -3°C° 0 mm 2 m/S 768 mmHg 32%
    03:00 -3°C° 0 mm 2 m/S 767 mmHg 31%
    04:00 -3°C° 0 mm 2 m/S 767 mmHg 31%
    05:00 -4°C° 0 mm 2 m/S 767 mmHg 31%
    06:00 -3°C° 0 mm 2 m/S 767 mmHg 30%
    07:00 -3°C° 0 mm 2 m/S 767 mmHg 30%
    08:00 -3°C° 0 mm 2 m/S 768 mmHg 30%
    09:00 -1°C° 0 mm 3 m/S 768 mmHg 26%
    10:00 +1°C° 0 mm 3 m/S 768 mmHg 23%
    11:00 +3°C° 0 mm 4 m/S 768 mmHg 20%
    12:00 +4°C° 0 mm 4 m/S 767 mmHg 19%
    13:00 +5°C° 0 mm 4 m/S 767 mmHg 18%
    14:00 +6°C° 0 mm 5 m/S 766 mmHg 17%
    15:00 +4°C° 0 mm 4 m/S 766 mmHg 19%
    16:00 +3°C° 0 mm 3 m/S 766 mmHg 21%
    17:00 +3°C° 0 mm 2 m/S 766 mmHg 23%
    18:00 +3°C° 0 mm 2 m/S 767 mmHg 24%
    19:00 +2°C° 0 mm 2 m/S 767 mmHg 25%
    20:00 +1°C° 0 mm 3 m/S 767 mmHg 26%
    21:00 0°C° 0 mm 3 m/S 767 mmHg 26%
    22:00 0°C° 0 mm 3 m/S 768 mmHg 25%
    23:00 0°C° 0 mm 3 m/S 768 mmHg 25%

    17 Dezember, Montag

    Zeit Temperatur Niederschläge Wind Luftdruck Luftfeuchtigkeit
    00:00 -1°C° 0 mm 3 m/S 768 mmHg 26%
    01:00 -1°C° 0 mm 3 m/S 768 mmHg 26%
    02:00 -1°C° 0 mm 3 m/S 768 mmHg 26%
    03:00 -2°C° 0 mm 3 m/S 767 mmHg 27%
    04:00 -2°C° 0 mm 3 m/S 767 mmHg 28%
    05:00 -2°C° 0 mm 2 m/S 767 mmHg 28%
    06:00 -2°C° 0 mm 2 m/S 767 mmHg 29%
    07:00 -3°C° 0 mm 2 m/S 767 mmHg 30%
    08:00 -3°C° 0 mm 2 m/S 767 mmHg 31%
    09:00 -1°C° 0 mm 3 m/S 767 mmHg 28%
    10:00 +1°C° 0 mm 3 m/S 767 mmHg 25%
    11:00 +3°C° 0 mm 3 m/S 767 mmHg 22%
    12:00 +4°C° 0 mm 3 m/S 766 mmHg 21%
    13:00 +5°C° 0 mm 3 m/S 765 mmHg 19%
    14:00 +6°C° 0 mm 4 m/S 764 mmHg 18%
    15:00 +5°C° 0 mm 3 m/S 764 mmHg 19%
    16:00 +5°C° 0 mm 2 m/S 764 mmHg 21%
    17:00 +4°C° 0 mm 2 m/S 764 mmHg 23%
    18:00 +3°C° 0 mm 2 m/S 764 mmHg 23%
    19:00 +3°C° 0 mm 2 m/S 764 mmHg 24%
    20:00 +2°C° 0 mm 2 m/S 764 mmHg 25%
    21:00 +2°C° 0 mm 2 m/S 764 mmHg 26%
    22:00 +2°C° 0 mm 2 m/S 764 mmHg 26%
    23:00 +1°C° 0 mm 2 m/S 764 mmHg 27%

    18 Dezember, Dienstag

    Zeit Temperatur Niederschläge Wind Luftdruck Luftfeuchtigkeit
    00:00 +1°C° 0 mm 2 m/S 764 mmHg 27%
    01:00 +1°C° 0 mm 2 m/S 764 mmHg 27%
    02:00 +1°C° 0 mm 2 m/S 765 mmHg 27%
    03:00 -1°C° 0 mm 2 m/S 765 mmHg 28%
    04:00 -1°C° 0 mm 2 m/S 765 mmHg 28%
    05:00 -1°C° 0 mm 2 m/S 765 mmHg 29%
    06:00 -1°C° 0 mm 2 m/S 766 mmHg 29%
    07:00 -1°C° 0 mm 2 m/S 766 mmHg 30%
    08:00 -2°C° 0 mm 2 m/S 767 mmHg 30%
    09:00 +1°C° 0 mm 2 m/S 767 mmHg 27%
    10:00 +3°C° 0 mm 2 m/S 767 mmHg 25%
    11:00 +5°C° 0 mm 1 m/S 768 mmHg 22%
    12:00 +5°C° 0 mm 2 m/S 767 mmHg 22%
    13:00 +5°C° 0 mm 3 m/S 767 mmHg 22%
    14:00 +5°C° 0 mm 3 m/S 766 mmHg 22%
    15:00 +5°C° 0 mm 3 m/S 766 mmHg 28%
    16:00 +4°C° 0 mm 3 m/S 766 mmHg 34%
    17:00 +4°C° 0 mm 2 m/S 766 mmHg 40%
    18:00 +2°C° 0 mm 3 m/S 766 mmHg 46%
    19:00 +2°C° 0 mm 3 m/S 766 mmHg 52%
    20:00 +1°C° 0 mm 3 m/S 767 mmHg 58%
    21:00 +2°C° 0 mm 2 m/S 766 mmHg 60%
    22:00 +1°C° 0 mm 2 m/S 766 mmHg 62%
    23:00 +1°C° 0 mm 2 m/S 766 mmHg 64%
    Mehr zeigen